Buenos Aires, Argentina

6:44 PM America en Julio 22, 2017 (GMT +0000)
Jorge Newbery Aeroparque

Tiempo Historia de SABE - Mayo, 2017

Change the Weather History Date:

Viernes, Mayo 19, 2017

  Actual Average Record
Temperature  
Temperatura media 59 ° F -  
Temperatura máxima 63 ° F 61 ° F 78 ° F (2008)
Temperatura mínima 55 ° F 49 ° F 41 ° F (1999)
Degree Days  
Grados día de calefacción 6    
Growing Degree Days 9 (Base 50)    
Moisture  
Punto de rocío 57 ° F    
Average Humidity 86    
Maximum Humidity 100    
Minimum Humidity 69    
Precipitación  
Precipitación 0.16 pul 0.08 pul - ()
Presión al nivel del mar  
Presión al nivel del mar 29.67 pul    
Viento  
Velocidad del viento 10 mph ()    
Velocidad máxima del viento 17 mph    
Max Gust Speed -    
Visibilidad 4.9 Millas    
Eventos Lluvia    
Averages and records for this station are not official NWS values.
T = Trace of Precipitation, MM = Missing Value Source: Averaged Metar Reports

Daily Weather History Graph

Daily Weather History Graph

Search for Another Location

Airport or City:

Trip Planner

Search our weather history database for the weather conditions in past years. The results will help you decide how hot, cold, wet, or windy it might be!

Date:

Astronomía

May. 19, 2017 Salida Puesta
Hora real 7:43 AM -03 5:56 PM -03
Crepúsculo civil 7:16 AM -03 6:23 PM -03
Crepúsculo náutico 6:45 AM -03 6:54 PM -03
Crepúsculo astronómico 6:15 AM -03 7:24 PM -03
Luna 12:41 AM -03 (5/19) 2:05 PM -03 (5/19)
Horas de luz 11h 07m
Horas de luz
10h 13m
Cuarto menguante, 44% of the Moon is Illuminated
May 19
Cuarto menguante
May 25
Nueva
Jun 1
Cuarto creciente
Jun 9
Luna llena
Jun 17
Cuarto menguante

Hourly Weather History & Observations

Hora (-03) Temp. Punto de rocío Humedad Presión Visibilidad Wind Dir Velocidad del viento Velocidad de ráfagas Precip Eventos Condiciones
12:00 AM 65 ° F 62 ° F 85% 29.70 pul 6 mi Este 13.8 mph - -   Parcialmente nublado
12:00 AM 64.4 ° F 60.8 ° F 88% 29.68 pul 6.2 mi Este 15.0 mph - N/A   Nublado
1:00 AM 64.4 ° F 62.6 ° F 94% 29.68 pul 6.2 mi Este 11.5 mph - N/A   Nublado
2:00 AM 64.4 ° F 62.6 ° F 94% 29.65 pul 6.2 mi NE 8.1 mph - N/A   Nublado
3:00 AM 64 ° F 62 ° F 89% 29.67 pul 6 mi NNE 6.9 mph - - Lluvia Lluvia débil
3:00 AM 64.4 ° F 60.8 ° F 88% 29.65 pul 5.0 mi Norte 6.9 mph - N/A Lluvia Lluvia débil
3:48 AM 64.4 ° F 60.8 ° F 88% 29.65 pul 2.2 mi NNE 8.1 mph - N/A Lluvia Lluvia
4:00 AM 64.4 ° F 60.8 ° F 88% 29.65 pul 2.2 mi NNE 8.1 mph - N/A Lluvia Lluvia
4:30 AM 64.4 ° F 60.8 ° F 88% 29.65 pul 5.6 mi NE 9.2 mph - N/A Lluvia Lluvia débil
5:00 AM 62.6 ° F 60.8 ° F 94% 29.62 pul 1.9 mi NE 9.2 mph - N/A Lluvia Lluvias fuertes
6:00 AM 63 ° F 62 ° F 96% 29.62 pul 3 mi NE 8.1 mph - - Lluvia Lluvia débil
6:00 AM 62.6 ° F 62.6 ° F 100% 29.62 pul 3.1 mi NE 8.1 mph - N/A Lluvia Lluvia
6:58 AM 64.4 ° F 62.6 ° F 94% 29.62 pul 1.9 mi Norte 10.4 mph - N/A Lluvia Lluvia
7:00 AM 64.4 ° F 62.6 ° F 94% 29.62 pul 1.9 mi Norte 9.2 mph - N/A Lluvia Lluvia
7:17 AM 62.6 ° F 60.8 ° F 94% 29.62 pul 3.1 mi NO 6.9 mph - N/A Lluvia Lluvia
7:30 AM 62.6 ° F 60.8 ° F 94% 29.62 pul 6.2 mi NO 5.8 mph - N/A   Nubes dispersas
8:00 AM 62.6 ° F 60.8 ° F 94% 29.62 pul 6.2 mi Norte 3.5 mph - N/A   Nubes dispersas
8:23 AM 62.6 ° F 60.8 ° F 94% 29.65 pul 5.0 mi Norte 4.6 mph - N/A   Muy nublado
8:42 AM 62.6 ° F 60.8 ° F 94% 29.65 pul 3.1 mi NO 10.4 mph - N/A   Muy nublado
9:00 AM 62 ° F 61 ° F 94% 29.66 pul 3 mi NO 10.4 mph - -   Neblina
9:00 AM 62.6 ° F 60.8 ° F 94% 29.65 pul 3.1 mi NO 10.4 mph - N/A   Muy nublado
10:00 AM 60.8 ° F 59.0 ° F 94% 29.68 pul 5.0 mi NO 10.4 mph - N/A   Muy nublado
11:00 AM 60.8 ° F 57.2 ° F 88% 29.68 pul 6.2 mi NO 11.5 mph - N/A   Muy nublado
12:00 PM 60 ° F 57 ° F 85% 29.69 pul 6 mi NO 11.5 mph - -   Nublado
12:00 PM 59.0 ° F 57.2 ° F 94% 29.68 pul 6.2 mi NO 11.5 mph - N/A   Muy nublado
1:00 PM 60.8 ° F 55.4 ° F 82% 29.68 pul 6.2 mi NO 13.8 mph - N/A   Muy nublado
2:00 PM 60.8 ° F 53.6 ° F 77% 29.65 pul 6.2 mi NNO 10.4 mph - N/A   Muy nublado
3:00 PM 63 ° F 55 ° F 69% 29.67 pul 6 mi NO 11.5 mph - -   Muy nublado
3:00 PM 62.6 ° F 55.4 ° F 77% 29.65 pul 6.2 mi NNO 11.5 mph - N/A   Muy nublado
4:00 PM 62.6 ° F 53.6 ° F 72% 29.68 pul 6.2 mi NNO 15.0 mph - N/A   Muy nublado
5:00 PM 59.0 ° F 51.8 ° F 77% 29.68 pul 6.2 mi NNO 15.0 mph - N/A   Muy nublado
6:00 PM 56 ° F 49 ° F 70% 29.71 pul 6 mi NNO 13.8 mph - -   Muy nublado
6:00 PM 57.2 ° F 48.2 ° F 72% 29.71 pul 6.2 mi NNO 13.8 mph - N/A   Nubes dispersas
7:00 PM 55.4 ° F 48.2 ° F 77% 29.71 pul 6.2 mi NNO 16.1 mph - N/A   Nublado
8:00 PM 55.4 ° F 48.2 ° F 77% 29.71 pul 6.2 mi NO 15.0 mph - N/A   Nublado
9:00 PM 55 ° F 48 ° F 71% 29.73 pul 6 mi NO 12.7 mph - -   Nublado
9:00 PM 55.4 ° F 48.2 ° F 77% 29.71 pul 6.2 mi NNO 12.7 mph - N/A   Nublado
10:00 PM 55.4 ° F 48.2 ° F 77% 29.71 pul 6.2 mi NNO 11.5 mph - N/A   Nublado
10:55 PM 55.4 ° F 50.0 ° F 82% 29.71 pul 1.9 mi NNO 17.3 mph - N/A   Llovizna
11:00 PM 55.4 ° F 50.0 ° F 82% 29.71 pul 1.9 mi NNO 17.3 mph - N/A   Llovizna
11:10 PM 55.4 ° F 50.0 ° F 82% 29.71 pul 5.0 mi NNO 13.8 mph - N/A   Llovizna